| time (UTC) | temp F | wind direction | speed MPH | gust MPH | rain 1hr in | rain 24hr in | rain mn in | humidity % | barometer mb |
| 20260510045607 | 69 | 0 | 0.0 | 0.0 | 0.00 | 0.27 | 0.00 | 100 | 1013.4 |
| 20260510045103 | 69 | 0 | 0.0 | 0.0 | 0.00 | 0.50 | 0.00 | 100 | 1013.4 |
| 20260510044601 | 69 | 0 | 0.0 | 0.0 | 0.00 | 0.50 | 0.00 | 100 | 1013.5 |
| 20260510044102 | 69 | 0 | 0.0 | 0.0 | 0.00 | 0.50 | 0.00 | 100 | 1013.5 |
| 20260510043602 | 69 | 0 | 0.0 | 0.0 | 0.00 | 0.50 | 0.00 | 100 | 1013.4 |
| 20260510043101 | 69 | 0 | 0.0 | 0.0 | 0.00 | 0.50 | 0.00 | 100 | 1013.4 |
| 20260510042602 | 69 | 0 | 0.0 | 0.0 | 0.00 | 0.50 | 0.00 | 100 | 1013.3 |
| 20260510042102 | 69 | 0 | 0.0 | 0.0 | 0.00 | 0.50 | 0.00 | 100 | 1013.3 |
| 20260510041601 | 69 | 0 | 0.0 | 0.0 | 0.00 | 0.50 | 0.00 | 100 | 1013.3 |
| 20260510041101 | 69 | 0 | 0.0 | 0.0 | 0.00 | 0.50 | 0.00 | 100 | 1013.4 |
| 20260510040602 | 69 | 0 | 0.0 | 0.0 | 0.00 | 0.50 | 0.00 | 100 | 1013.4 |
| 20260510035602 | 69 | 0 | 0.0 | 1.0 | 0.00 | 0.50 | 0.50 | 100 | 1013.4 |
| 20260510035102 | 69 | 0 | 0.0 | 0.0 | 0.00 | 0.50 | 0.50 | 100 | 1013.5 |
| 20260510034602 | 69 | 0 | 0.0 | 0.0 | 0.00 | 0.50 | 0.50 | 100 | 1013.4 |
| 20260510034100 | 69 | 0 | 0.0 | 0.0 | 0.00 | 0.50 | 0.50 | 100 | 1013.5 |
| 20260510033602 | 69 | 0 | 0.0 | 0.0 | 0.00 | 0.50 | 0.50 | 99 | 1013.5 |
| 20260510032103 | 69 | 0 | 0.0 | 2.0 | 0.00 | 0.50 | 0.50 | 99 | 1013.5 |
| 20260510031602 | 69 | 165 | 0.0 | 1.0 | 0.00 | 0.50 | 0.50 | 99 | 1013.5 |
| 20260510030601 | 69 | 0 | 0.0 | 0.0 | 0.00 | 0.50 | 0.50 | 99 | 1013.6 |
| 20260510025601 | 69 | 0 | 0.0 | 0.0 | 0.00 | 0.50 | 0.50 | 99 | 1013.5 |
| 20260510024602 | 70 | 0 | 0.0 | 0.0 | 0.00 | 0.50 | 0.50 | 99 | 1013.2 |
| 20260510024102 | 70 | 0 | 0.0 | 1.0 | 0.00 | 0.50 | 0.50 | 99 | 1013.2 |
| 20260510023602 | 70 | 0 | 0.0 | 1.0 | 0.00 | 0.50 | 0.50 | 99 | 1013.2 |
| 20260510023100 | 70 | 0 | 0.0 | 2.0 | 0.00 | 0.50 | 0.50 | 99 | 1013.0 |
| 20260510022602 | 70 | 0 | 1.0 | 3.0 | 0.00 | 0.50 | 0.50 | 99 | 1013.0 |
| 20260510022103 | 70 | 161 | 1.0 | 3.0 | 0.00 | 0.50 | 0.50 | 99 | 1012.7 |
| 20260510021101 | 70 | 0 | 0.0 | 0.0 | 0.00 | 0.50 | 0.50 | 99 | 1012.8 |
| 20260510020601 | 70 | 0 | 0.0 | 0.0 | 0.00 | 0.50 | 0.50 | 99 | 1012.7 |
| 20260510015106 | 70 | 297 | 1.0 | 2.0 | 0.00 | 0.50 | 0.50 | 99 | 1012.5 |
| 20260510014602 | 70 | 274 | 1.0 | 2.0 | 0.00 | 0.50 | 0.50 | 99 | 1012.4 |
| 20260510014102 | 70 | 285 | 1.0 | 2.0 | 0.00 | 0.50 | 0.50 | 99 | 1012.2 |
| 20260510013602 | 70 | 0 | 0.0 | 0.0 | 0.00 | 0.50 | 0.50 | 99 | 1012.1 |
| 20260510013102 | 70 | 0 | 1.0 | 2.0 | 0.00 | 0.50 | 0.50 | 99 | 1012.0 |
| 20260510011602 | 70 | 0 | 0.0 | 1.0 | 0.00 | 0.50 | 0.50 | 98 | 1012.0 |
| 20260510011104 | 70 | 0 | 0.0 | 2.0 | 0.00 | 0.50 | 0.50 | 98 | 1012.1 |
| 20260510010602 | 70 | 0 | 0.0 | 2.0 | 0.00 | 0.50 | 0.50 | 98 | 1012.2 |
| 20260510005103 | 70 | 0 | 0.0 | 1.0 | 0.00 | 0.50 | 0.50 | 98 | 1012.1 |
| 20260510004602 | 70 | 0 | 0.0 | 0.0 | 0.00 | 0.50 | 0.50 | 98 | 1012.0 |
| 20260510003602 | 70 | 0 | 0.0 | 1.0 | 0.00 | 0.50 | 0.50 | 98 | 1011.9 |
| 20260510003102 | 70 | 0 | 0.0 | 1.0 | 0.01 | 0.50 | 0.50 | 98 | 1012.0 |
| 20260510002602 | 70 | 0 | 0.0 | 1.0 | 0.02 | 0.50 | 0.50 | 98 | 1012.0 |
| 20260510002102 | 70 | 0 | 0.0 | 0.0 | 0.02 | 0.50 | 0.50 | 98 | 1012.2 |
| 20260510001603 | 70 | 0 | 0.0 | 2.0 | 0.02 | 0.50 | 0.50 | 98 | 1012.3 |
| 20260510001102 | 70 | 0 | 0.0 | 2.0 | 0.03 | 0.50 | 0.50 | 98 | 1012.3 |
| 20260510000602 | 70 | 0 | 0.0 | 1.0 | 0.03 | 0.50 | 0.50 | 97 | 1012.3 |
| 20260509235602 | 70 | 217 | 0.0 | 2.0 | 0.03 | 0.50 | 0.50 | 97 | 1012.5 |
| 20260509235102 | 70 | 0 | 1.0 | 3.0 | 0.03 | 0.50 | 0.50 | 97 | 1012.5 |
| 20260509234603 | 71 | 312 | 2.0 | 3.0 | 0.03 | 0.50 | 0.50 | 97 | 1012.5 |
| 20260509234100 | 71 | 307 | 1.0 | 3.0 | 0.02 | 0.50 | 0.50 | 97 | 1012.8 |
| 20260509233600 | 71 | 0 | 1.0 | 2.0 | 0.02 | 0.50 | 0.50 | 97 | 1012.9 |
| 20260509233101 | 71 | 232 | 0.0 | 2.0 | 0.02 | 0.49 | 0.49 | 96 | 1012.7 |
| 20260509232106 | 71 | 0 | 0.0 | 0.0 | 0.01 | 0.49 | 0.49 | 96 | 1012.5 |
| 20260509231601 | 71 | 0 | 0.0 | 1.0 | 0.01 | 0.49 | 0.49 | 96 | 1012.5 |
| 20260509225603 | 71 | 288 | 0.0 | 2.0 | 0.00 | 0.48 | 0.48 | 95 | 1012.5 |
| 20260509225101 | 71 | 0 | 0.0 | 2.0 | 0.00 | 0.48 | 0.48 | 95 | 1012.4 |
| 20260509224602 | 71 | 29 | 0.0 | 2.0 | 0.00 | 0.48 | 0.48 | 95 | 1012.4 |
| 20260509223558 | 71 | 0 | 1.0 | 4.0 | 0.00 | 0.48 | 0.48 | 95 | 1012.3 |
| 20260509223104 | 71 | 42 | 1.0 | 4.0 | 0.00 | 0.48 | 0.48 | 95 | 1012.2 |
| 20260509222059 | 71 | 34 | 1.0 | 3.0 | 0.00 | 0.48 | 0.48 | 95 | 1012.2 |
| 20260509221549 | 71 | 13 | 2.0 | 4.0 | 0.00 | 0.48 | 0.48 | 95 | 1012.2 |
| 20260509221043 | 71 | 35 | 2.0 | 4.0 | 0.00 | 0.48 | 0.48 | 95 | 1012.2 |
| 20260509220544 | 71 | 65 | 1.0 | 3.0 | 0.00 | 0.48 | 0.48 | 95 | 1012.2 |
| 20260509220044 | 71 | 15 | 2.0 | 3.0 | 0.00 | 0.48 | 0.48 | 95 | 1012.1 |
| 20260509215545 | 71 | 36 | 2.0 | 4.0 | 0.00 | 0.48 | 0.48 | 95 | 1012.1 |
| 20260509215044 | 71 | 18 | 2.0 | 4.0 | 0.00 | 0.48 | 0.48 | 95 | 1012.2 |
| 20260509214544 | 71 | 12 | 1.0 | 3.0 | 0.00 | 0.48 | 0.48 | 95 | 1012.2 |
| 20260509214044 | 71 | 18 | 2.0 | 4.0 | 0.00 | 0.48 | 0.48 | 95 | 1012.0 |
| 20260509213544 | 71 | 25 | 2.0 | 4.0 | 0.00 | 0.48 | 0.48 | 95 | 1011.9 |
| 20260509213045 | 71 | 343 | 3.0 | 6.0 | 0.00 | 0.48 | 0.48 | 95 | 1012.0 |
| 20260509212545 | 71 | 20 | 3.0 | 6.0 | 0.00 | 0.48 | 0.48 | 95 | 1011.9 |
| 20260509211543 | 71 | 324 | 4.0 | 8.0 | 0.00 | 0.48 | 0.48 | 95 | 1011.9 |
| 20260509211044 | 71 | 353 | 5.0 | 9.0 | 0.00 | 0.48 | 0.48 | 95 | 1011.9 |
| 20260509210544 | 71 | 297 | 4.0 | 9.0 | 0.00 | 0.48 | 0.48 | 96 | 1011.9 |
| 20260509210043 | 71 | 309 | 4.0 | 7.0 | 0.00 | 0.48 | 0.48 | 96 | 1011.9 |
| 20260509205543 | 71 | 339 | 5.0 | 9.0 | 0.00 | 0.48 | 0.48 | 96 | 1011.8 |
| 20260509204544 | 71 | 330 | 4.0 | 9.0 | 0.00 | 0.48 | 0.48 | 96 | 1011.8 |
| 20260509204042 | 71 | 8 | 4.0 | 8.0 | 0.02 | 0.48 | 0.48 | 96 | 1011.9 |
| 20260509203542 | 71 | 354 | 5.0 | 10.0 | 0.03 | 0.48 | 0.48 | 96 | 1011.9 |
| 20260509203043 | 71 | 324 | 5.0 | 10.0 | 0.04 | 0.48 | 0.48 | 96 | 1011.8 |
| 20260509202042 | 71 | 302 | 5.0 | 9.0 | 0.06 | 0.48 | 0.48 | 96 | 1011.9 |
| 20260509201543 | 72 | 289 | 4.0 | 11.0 | 0.07 | 0.48 | 0.48 | 96 | 1011.9 |
| 20260509201042 | 72 | 346 | 5.0 | 11.0 | 0.07 | 0.48 | 0.48 | 96 | 1012.0 |
| 20260509200542 | 72 | 303 | 5.0 | 9.0 | 0.07 | 0.48 | 0.48 | 97 | 1012.0 |
| 20260509195541 | 73 | 291 | 4.0 | 8.0 | 0.10 | 0.48 | 0.48 | 96 | 1011.8 |
| 20260509195039 | 74 | 300 | 4.0 | 8.0 | 0.10 | 0.48 | 0.48 | 97 | 1011.9 |
| 20260509194535 | 74 | 267 | 4.0 | 8.0 | 0.12 | 0.49 | 0.48 | 96 | 1012.0 |
| 20260509194035 | 74 | 300 | 4.0 | 7.0 | 0.11 | 0.48 | 0.46 | 96 | 1012.0 |
| 20260509193535 | 74 | 278 | 4.0 | 6.0 | 0.10 | 0.46 | 0.45 | 95 | 1012.0 |
| 20260509193035 | 74 | 267 | 3.0 | 6.0 | 0.09 | 0.45 | 0.44 | 95 | 1011.8 |
| 20260509192531 | 75 | 291 | 2.0 | 5.0 | 0.08 | 0.45 | 0.43 | 94 | 1011.8 |
| 20260509192030 | 75 | 167 | 1.0 | 3.0 | 0.07 | 0.44 | 0.42 | 94 | 1011.9 |
| 20260509191534 | 75 | 302 | 1.0 | 3.0 | 0.06 | 0.43 | 0.41 | 93 | 1012.0 |
| 20260509191027 | 76 | 302 | 0.0 | 2.0 | 0.05 | 0.42 | 0.40 | 92 | 1011.9 |
| 20260509190522 | 76 | 0 | 0.0 | 4.0 | 0.05 | 0.43 | 0.40 | 91 | 1012.0 |
| 20260509190023 | 77 | 0 | 0.0 | 4.0 | 0.04 | 0.42 | 0.39 | 91 | 1012.0 |
| 20260509185021 | 78 | 0 | 0.0 | 4.0 | 0.02 | 0.40 | 0.37 | 88 | 1011.7 |
| 20260509184519 | 78 | 0 | 2.0 | 7.0 | 0.01 | 0.39 | 0.36 | 86 | 1011.6 |
| 20260509184020 | 78 | 248 | 3.0 | 7.0 | 0.00 | 0.38 | 0.35 | 85 | 1011.6 |
| 20260509183521 | 79 | 298 | 1.0 | 4.0 | 0.00 | 0.38 | 0.35 | 85 | 1011.7 |
| 20260509183007 | 79 | 17 | 2.0 | 5.0 | 0.00 | 0.38 | 0.35 | 84 | 1011.7 |
| 20260509182509 | 79 | 251 | 2.0 | 5.0 | 0.00 | 0.38 | 0.35 | 84 | 1011.9 |
| 20260509182007 | 79 | 331 | 3.0 | 6.0 | 0.00 | 0.38 | 0.35 | 83 | 1011.8 |
| 20260509181506 | 80 | 310 | 2.0 | 6.0 | 0.00 | 0.38 | 0.35 | 82 | 1011.8 |
| 20260509181005 | 80 | 188 | 1.0 | 5.0 | 0.00 | 0.38 | 0.35 | 82 | 1011.8 |
| 20260509180006 | 80 | 0 | 3.0 | 9.0 | 0.00 | 0.38 | 0.35 | 83 | 1011.9 |
| 20260509175002 | 80 | 295 | 3.0 | 7.0 | 0.00 | 0.39 | 0.35 | 81 | 1012.1 |
| 20260509174503 | 80 | 334 | 3.0 | 8.0 | 0.00 | 0.39 | 0.35 | 81 | 1012.1 |
| 20260509174004 | 80 | 280 | 2.0 | 8.0 | 0.00 | 0.39 | 0.35 | 82 | 1012.1 |
| 20260509173503 | 80 | 0 | 3.0 | 8.0 | 0.00 | 0.39 | 0.35 | 83 | 1012.2 |
| 20260509173003 | 79 | 6 | 4.0 | 14.0 | 0.00 | 0.39 | 0.35 | 83 | 1012.3 |
| 20260509172503 | 80 | 324 | 2.0 | 14.0 | 0.00 | 0.39 | 0.35 | 83 | 1012.3 |
| 20260509172003 | 79 | 270 | 1.0 | 8.0 | 0.00 | 0.39 | 0.35 | 83 | 1012.2 |
| 20260509171502 | 79 | 258 | 1.0 | 5.0 | 0.00 | 0.39 | 0.35 | 82 | 1012.2 |
| 20260509171000 | 79 | 276 | 2.0 | 6.0 | 0.00 | 0.39 | 0.35 | 83 | 1012.2 |
| 20260509170500 | 79 | 36 | 2.0 | 7.0 | 0.00 | 0.39 | 0.35 | 83 | 1012.2 |
| 20260509170001 | 78 | 327 | 2.0 | 7.0 | 0.00 | 0.39 | 0.35 | 85 | 1012.2 |
| 20260509165501 | 78 | 337 | 2.0 | 7.0 | 0.00 | 0.39 | 0.35 | 85 | 1012.3 |
| 20260509164501 | 78 | 253 | 1.0 | 4.0 | 0.00 | 0.39 | 0.35 | 86 | 1012.3 |
| 20260509164001 | 77 | 0 | 1.0 | 5.0 | 0.00 | 0.39 | 0.35 | 86 | 1012.4 |
| 20260509163500 | 76 | 0 | 1.0 | 5.0 | 0.00 | 0.39 | 0.35 | 88 | 1012.4 |
| 20260509163001 | 76 | 0 | 2.0 | 5.0 | 0.00 | 0.42 | 0.35 | 89 | 1012.4 |
| 20260509162501 | 76 | 34 | 1.0 | 4.0 | 0.00 | 0.42 | 0.35 | 88 | 1012.3 |
| 20260509162001 | 75 | 317 | 1.0 | 4.0 | 0.00 | 0.42 | 0.35 | 90 | 1012.5 |
| 20260509161501 | 75 | 138 | 2.0 | 4.0 | 0.00 | 0.42 | 0.35 | 89 | 1012.6 |
| 20260509161002 | 75 | 0 | 2.0 | 4.0 | 0.00 | 0.42 | 0.35 | 90 | 1012.6 |
| 20260509160501 | 74 | 100 | 2.0 | 4.0 | 0.00 | 0.42 | 0.35 | 90 | 1012.6 |
| 20260509160009 | 74 | 125 | 2.0 | 4.0 | 0.00 | 0.42 | 0.35 | 90 | 1012.5 |
| 20260509155500 | 74 | 73 | 2.0 | 4.0 | 0.00 | 0.42 | 0.35 | 89 | 1012.6 |
| 20260509155000 | 74 | 72 | 1.0 | 3.0 | 0.00 | 0.42 | 0.35 | 89 | 1012.7 |
| 20260509154500 | 74 | 0 | 1.0 | 4.0 | 0.00 | 0.42 | 0.35 | 90 | 1012.8 |
| 20260509154002 | 74 | 235 | 1.0 | 4.0 | 0.00 | 0.42 | 0.35 | 90 | 1012.6 |
| 20260509153001 | 74 | 0 | 2.0 | 6.0 | 0.00 | 0.43 | 0.35 | 90 | 1012.4 |
| 20260509152501 | 74 | 30 | 3.0 | 7.0 | 0.00 | 0.43 | 0.35 | 90 | 1012.5 |
| 20260509152001 | 74 | 17 | 4.0 | 7.0 | 0.00 | 0.43 | 0.35 | 90 | 1012.5 |
| 20260509151505 | 74 | 354 | 3.0 | 6.0 | 0.00 | 0.43 | 0.35 | 90 | 1012.6 |
| 20260509151001 | 74 | 2 | 2.0 | 4.0 | 0.00 | 0.43 | 0.35 | 89 | 1012.6 |
| 20260509150501 | 74 | 30 | 1.0 | 4.0 | 0.00 | 0.43 | 0.35 | 89 | 1012.8 |
| 20260509145501 | 74 | 0 | 1.0 | 4.0 | 0.00 | 0.43 | 0.35 | 89 | 1012.9 |
| 20260509145001 | 74 | 26 | 1.0 | 4.0 | 0.00 | 0.43 | 0.35 | 89 | 1012.8 |
| 20260509144001 | 74 | 155 | 1.0 | 3.0 | 0.00 | 0.43 | 0.35 | 88 | 1012.7 |
| 20260509143501 | 73 | 38 | 1.0 | 4.0 | 0.00 | 0.43 | 0.35 | 89 | 1012.8 |
| 20260509143002 | 73 | 32 | 2.0 | 4.0 | 0.00 | 0.43 | 0.35 | 91 | 1012.8 |
| 20260509142501 | 73 | 59 | 1.0 | 4.0 | 0.00 | 0.43 | 0.35 | 91 | 1012.7 |
| 20260509142001 | 73 | 98 | 1.0 | 5.0 | 0.00 | 0.43 | 0.35 | 90 | 1012.7 |
| 20260509141501 | 73 | 26 | 1.0 | 5.0 | 0.00 | 0.43 | 0.35 | 90 | 1012.7 |
| 20260509141001 | 72 | 331 | 0.0 | 4.0 | 0.00 | 0.42 | 0.34 | 91 | 1012.7 |
| 20260509140501 | 71 | 0 | 0.0 | 2.0 | 0.00 | 0.42 | 0.34 | 91 | 1012.6 |
| 20260509140000 | 71 | 0 | 1.0 | 2.0 | 0.00 | 0.42 | 0.34 | 91 | 1012.5 |
| 20260509135501 | 72 | 0 | 0.0 | 2.0 | 0.00 | 0.42 | 0.34 | 90 | 1012.5 |
| 20260509135002 | 71 | 0 | 0.0 | 2.0 | 0.00 | 0.42 | 0.34 | 91 | 1012.6 |
| 20260509134500 | 71 | 0 | 0.0 | 2.0 | 0.00 | 0.42 | 0.34 | 91 | 1012.6 |
| 20260509134001 | 71 | 42 | 0.0 | 3.0 | 0.00 | 0.42 | 0.34 | 91 | 1012.6 |
| 20260509133001 | 70 | 321 | 2.0 | 3.0 | 0.00 | 0.42 | 0.34 | 92 | 1012.7 |
| 20260509132501 | 70 | 321 | 2.0 | 3.0 | 0.00 | 0.42 | 0.34 | 92 | 1012.6 |
| 20260509132002 | 70 | 291 | 2.0 | 4.0 | 0.00 | 0.42 | 0.34 | 92 | 1012.5 |
| 20260509131502 | 70 | 320 | 3.0 | 5.0 | 0.00 | 0.42 | 0.34 | 92 | 1012.5 |
| 20260509131001 | 71 | 280 | 3.0 | 5.0 | 0.00 | 0.42 | 0.34 | 92 | 1012.5 |
| 20260509130503 | 70 | 341 | 3.0 | 4.0 | 0.00 | 0.42 | 0.34 | 92 | 1012.5 |
| 20260509130002 | 70 | 351 | 2.0 | 4.0 | 0.00 | 0.42 | 0.34 | 92 | 1012.4 |
| 20260509125502 | 70 | 280 | 2.0 | 4.0 | 0.00 | 0.42 | 0.34 | 92 | 1012.4 |
| 20260509125001 | 70 | 305 | 2.0 | 3.0 | 0.00 | 0.42 | 0.34 | 92 | 1012.4 |
| 20260509124502 | 70 | 323 | 1.0 | 4.0 | 0.00 | 0.42 | 0.34 | 93 | 1012.4 |
| 20260509123502 | 70 | 319 | 2.0 | 5.0 | 0.00 | 0.42 | 0.34 | 95 | 1012.3 |
| 20260509122502 | 69 | 6 | 4.0 | 6.0 | 0.00 | 0.42 | 0.34 | 97 | 1012.0 |
| 20260509122001 | 69 | 353 | 4.0 | 6.0 | 0.00 | 0.42 | 0.34 | 98 | 1011.9 |
| 20260509121502 | 69 | 10 | 3.0 | 4.0 | 0.00 | 0.42 | 0.34 | 99 | 1011.9 |
| 20260509121003 | 69 | 356 | 1.0 | 4.0 | 0.00 | 0.42 | 0.34 | 99 | 1011.8 |
| 20260509120501 | 68 | 0 | 1.0 | 4.0 | 0.00 | 0.42 | 0.34 | 99 | 1011.9 |
| 20260509120002 | 68 | 0 | 2.0 | 4.0 | 0.00 | 0.42 | 0.34 | 100 | 1011.8 |
| 20260509115502 | 67 | 349 | 2.0 | 4.0 | 0.00 | 0.42 | 0.34 | 100 | 1011.9 |
| 20260509114503 | 67 | 315 | 3.0 | 6.0 | 0.00 | 0.42 | 0.34 | 100 | 1012.0 |
| 20260509114001 | 66 | 289 | 4.0 | 6.0 | 0.00 | 0.42 | 0.34 | 100 | 1012.0 |
| 20260509113502 | 66 | 321 | 2.0 | 4.0 | 0.00 | 0.42 | 0.34 | 100 | 1011.7 |
| 20260509113002 | 66 | 312 | 1.0 | 3.0 | 0.00 | 0.42 | 0.34 | 100 | 1011.4 |
| 20260509112002 | 66 | 0 | 1.0 | 2.0 | 0.00 | 0.42 | 0.34 | 100 | 1011.0 |
| 20260509111502 | 66 | 183 | 1.0 | 2.0 | 0.00 | 0.42 | 0.34 | 100 | 1011.0 |
| 20260509111000 | 65 | 0 | 1.0 | 2.0 | 0.00 | 0.42 | 0.34 | 100 | 1011.0 |
| 20260509110503 | 65 | 204 | 1.0 | 2.0 | 0.00 | 0.42 | 0.34 | 100 | 1010.9 |
| 20260509110002 | 65 | 0 | 1.0 | 2.0 | 0.00 | 0.42 | 0.34 | 100 | 1010.8 |
| 20260509105502 | 65 | 0 | 1.0 | 2.0 | 0.00 | 0.42 | 0.34 | 100 | 1010.7 |
| 20260509105001 | 65 | 197 | 2.0 | 3.0 | 0.00 | 0.42 | 0.34 | 100 | 1010.7 |
| 20260509104500 | 65 | 200 | 3.0 | 3.0 | 0.00 | 0.42 | 0.34 | 100 | 1010.5 |
| 20260509104001 | 65 | 210 | 2.0 | 4.0 | 0.00 | 0.42 | 0.34 | 100 | 1010.3 |
| 20260509103502 | 65 | 194 | 2.0 | 4.0 | 0.00 | 0.42 | 0.34 | 100 | 1010.2 |
| 20260509103003 | 66 | 206 | 2.0 | 3.0 | 0.00 | 0.42 | 0.34 | 100 | 1010.1 |
| 20260509102001 | 66 | 183 | 2.0 | 3.0 | 0.00 | 0.42 | 0.34 | 100 | 1010.3 |
| 20260509101502 | 66 | 182 | 2.0 | 3.0 | 0.00 | 0.42 | 0.34 | 100 | 1010.4 |
| 20260509100503 | 66 | 177 | 2.0 | 3.0 | 0.00 | 0.42 | 0.34 | 100 | 1010.3 |
| 20260509100001 | 66 | 195 | 2.0 | 3.0 | 0.00 | 0.42 | 0.34 | 100 | 1010.4 |
| 20260509095502 | 66 | 199 | 2.0 | 3.0 | 0.00 | 0.42 | 0.34 | 100 | 1010.4 |
| 20260509093503 | 65 | 178 | 2.0 | 3.0 | 0.00 | 0.42 | 0.34 | 100 | 1010.7 |
| 20260509092502 | 66 | 161 | 1.0 | 2.0 | 0.00 | 0.42 | 0.34 | 100 | 1011.2 |
| 20260509092002 | 66 | 185 | 1.0 | 3.0 | 0.00 | 0.42 | 0.34 | 100 | 1011.3 |
| 20260509091502 | 66 | 281 | 2.0 | 3.0 | 0.00 | 0.42 | 0.34 | 100 | 1011.4 |
| 20260509091001 | 66 | 260 | 2.0 | 3.0 | 0.00 | 0.42 | 0.34 | 100 | 1011.3 |
| 20260509090002 | 66 | 188 | 2.0 | 2.0 | 0.00 | 0.42 | 0.34 | 100 | 1011.2 |
| 20260509085502 | 66 | 208 | 1.0 | 2.0 | 0.00 | 0.42 | 0.34 | 99 | 1011.2 |
| 20260509084502 | 66 | 191 | 2.0 | 2.0 | 0.00 | 0.42 | 0.34 | 99 | 1011.3 |
| 20260509084000 | 66 | 200 | 2.0 | 2.0 | 0.00 | 0.42 | 0.34 | 99 | 1011.2 |
| 20260509083501 | 66 | 220 | 1.0 | 2.0 | 0.00 | 0.42 | 0.34 | 99 | 1011.2 |
| 20260509083002 | 66 | 200 | 1.0 | 2.0 | 0.00 | 0.42 | 0.34 | 99 | 1011.2 |
| 20260509082502 | 67 | 159 | 1.0 | 2.0 | 0.00 | 0.42 | 0.34 | 99 | 1011.2 |
| 20260509082001 | 67 | 188 | 2.0 | 2.0 | 0.00 | 0.42 | 0.34 | 99 | 1011.2 |
| 20260509081502 | 67 | 210 | 2.0 | 2.0 | 0.00 | 0.42 | 0.34 | 99 | 1011.2 |
| 20260509081002 | 66 | 227 | 2.0 | 3.0 | 0.00 | 0.42 | 0.34 | 99 | 1011.2 |
| 20260509080501 | 66 | 197 | 1.0 | 3.0 | 0.00 | 0.42 | 0.34 | 99 | 1011.1 |
| 20260509080002 | 66 | 204 | 1.0 | 2.0 | 0.00 | 0.42 | 0.34 | 99 | 1011.1 |
| 20260509075503 | 66 | 208 | 1.0 | 2.0 | 0.00 | 0.42 | 0.34 | 99 | 1011.0 |
| 20260509074502 | 66 | 193 | 1.0 | 2.0 | 0.00 | 0.42 | 0.34 | 99 | 1011.3 |
| 20260509074002 | 66 | 147 | 0.0 | 2.0 | 0.00 | 0.42 | 0.34 | 99 | 1011.4 |
| 20260509073501 | 66 | 0 | 0.0 | 2.0 | 0.00 | 0.42 | 0.34 | 99 | 1011.5 |
| 20260509073002 | 66 | 0 | 1.0 | 2.0 | 0.00 | 0.42 | 0.34 | 99 | 1011.5 |
| 20260509072501 | 66 | 232 | 1.0 | 2.0 | 0.00 | 0.42 | 0.34 | 99 | 1011.6 |
| 20260509072001 | 66 | 0 | 0.0 | 2.0 | 0.00 | 0.42 | 0.34 | 99 | 1011.6 |
| 20260509071501 | 66 | 0 | 1.0 | 2.0 | 0.00 | 0.42 | 0.34 | 99 | 1011.6 |
| 20260509071000 | 66 | 240 | 0.0 | 2.0 | 0.00 | 0.42 | 0.34 | 99 | 1011.7 |
| 20260509070501 | 66 | 0 | 0.0 | 2.0 | 0.00 | 0.42 | 0.34 | 99 | 1011.9 |
| 20260509065000 | 66 | 0 | 0.0 | 1.0 | 0.00 | 0.42 | 0.34 | 99 | 1012.0 |
| 20260509064501 | 66 | 186 | 0.0 | 1.0 | 0.00 | 0.42 | 0.34 | 99 | 1012.1 |
| 20260509064001 | 66 | 0 | 0.0 | 2.0 | 0.00 | 0.42 | 0.34 | 99 | 1012.2 |
| 20260509063500 | 66 | 0 | 1.0 | 2.0 | 0.00 | 0.42 | 0.34 | 99 | 1012.2 |
| 20260509063002 | 66 | 0 | 1.0 | 2.0 | 0.00 | 0.42 | 0.34 | 98 | 1012.4 |
| 20260509062501 | 66 | 0 | 1.0 | 2.0 | 0.00 | 0.42 | 0.34 | 98 | 1012.4 |
| 20260509062001 | 66 | 0 | 0.0 | 1.0 | 0.00 | 0.42 | 0.34 | 98 | 1012.5 |
| 20260509061501 | 66 | 0 | 0.0 | 1.0 | 0.00 | 0.42 | 0.34 | 98 | 1012.5 |
| 20260509061004 | 66 | 0 | 0.0 | 2.0 | 0.00 | 0.42 | 0.34 | 98 | 1012.6 |
| 20260509060502 | 66 | 0 | 0.0 | 2.0 | 0.00 | 0.42 | 0.34 | 98 | 1012.6 |
| 20260509055959 | 66 | 0 | 1.0 | 2.0 | 0.00 | 0.42 | 0.34 | 98 | 1012.6 |
| 20260509055500 | 66 | 0 | 1.0 | 2.0 | 0.23 | 0.42 | 0.34 | 98 | 1012.7 |
| 20260509055000 | 66 | 0 | 1.0 | 2.0 | 0.34 | 0.42 | 0.34 | 98 | 1012.7 |
| 20260509054500 | 66 | 133 | 1.0 | 2.0 | 0.34 | 0.42 | 0.34 | 98 | 1012.8 |
| 20260509054000 | 66 | 216 | 0.0 | 1.0 | 0.34 | 0.42 | 0.34 | 98 | 1012.9 |
| 20260509053500 | 66 | 0 | 1.0 | 2.0 | 0.34 | 0.42 | 0.34 | 98 | 1012.9 |
| 20260509052959 | 66 | 0 | 1.0 | 3.0 | 0.34 | 0.42 | 0.34 | 98 | 1013.2 |
| 20260509052005 | 66 | 89 | 0.0 | 3.0 | 0.34 | 0.42 | 0.34 | 98 | 1013.0 |
| 20260509051458 | 66 | 0 | 1.0 | 2.0 | 0.34 | 0.42 | 0.34 | 98 | 1013.3 |
| 20260509051000 | 66 | 116 | 2.0 | 4.0 | 0.34 | 0.42 | 0.34 | 97 | 1013.5 |
| 20260509050500 | 66 | 0 | 3.0 | 6.0 | 0.34 | 0.42 | 0.34 | 97 | 1013.2 |